[[{"header":{"parameterUnit":"m.s-1","parameterCategory":1,"la1":30.2991,"la2":30.254,"lo1":-89.0895,"lo2":-89.0444,"dy":0.0017,"dx":0.0017,"nx":28,"ny":28,"refTime":"2025-06-19T03:00:00:Z","depth":0,"parameterNumber":2,"parameterNumberName":"U-component_of_WINDS"},"data":[0,0,0,0,0,0,0,0,0,0,0,0,0,0,0,0,0,0,0,0,0,0,0,0,0,0,0,0,0,0,0,0,0,0,0,0,0,0,0,0,0,0,0,0,0,0,0,0,0,0,0,0,0,0,0,0,0,0,2.954,2.9541,0,2.9653,2.9654,2.9655,2.9647,2.9645,2.9643,2.9642,2.9757,2.9761,2.9766,0,0,0,0,0,0,0,0,0,0,0,0,0,2.9314,2.9319,2.954,2.9542,2.9543,2.9653,2.9654,2.9656,2.9647,2.9645,2.9643,2.9641,2.9755,2.9761,2.9766,0,0,0,0,0,0,0,0,0,0,0,0,0,2.9418,2.932,2.954,2.9552,2.9554,2.9652,2.9654,2.9656,2.9647,2.9645,2.9642,2.964,2.9753,2.976,2.9767,2.9861,0,0,2.9788,2.9791,0,0,0,0,0,0,0,0,2.9412,2.9427,2.9549,2.9551,2.9554,2.9633,2.9617,2.9725,2.9648,2.9612,2.9642,2.9639,2.9718,2.9727,2.9754,2.9866,2.9871,2.9789,2.9793,2.9796,2.9798,0,0,0,0,0,0,0,2.9405,2.9422,2.9585,2.955,2.9554,2.9551,2.9563,2.9637,2.9678,2.9615,2.9615,2.9628,2.9719,2.9747,2.9757,2.9873,2.9789,2.9795,2.9799,2.9802,3.0064,3.0066,0,0,0,0,0,0,2.9396,2.9416,2.9581,2.9588,2.9475,2.9557,2.957,2.961,2.9677,2.9685,2.963,2.9627,2.9737,2.9749,2.9761,2.9872,2.9796,2.9803,2.9807,3.0061,3.0064,3.0067,0,0,0,0,0,0,2.9391,2.941,2.9577,2.9502,2.9523,2.9563,2.9608,2.9614,2.9643,2.9688,2.9695,2.9652,2.9735,2.9751,2.9835,2.9876,2.9806,2.9812,3.0058,3.0062,3.0066,3.0097,0,0,0,0,0,0,2.9384,2.9409,2.9446,2.9503,2.9527,2.965,2.9611,2.9618,2.9655,2.9652,2.9711,2.9718,2.9735,2.9825,2.9842,2.9884,2.9818,3.0054,3.0059,3.0064,3.0092,3.0102,3.0109,0,0,0,0,0,2.9376,2.9451,2.9448,2.9468,2.9574,2.9652,2.9666,2.9683,2.9658,2.9695,2.9723,2.9716,2.9869,2.9834,2.9853,2.9898,3.0051,3.0058,3.0064,3.0088,3.01,3.0109,0,0,0,0,0,0,2.9398,2.9458,2.9456,2.9551,2.9596,2.9651,2.9697,2.9695,2.9749,2.9744,2.9763,2.9776,2.986,2.9888,2.9847,2.999,2.9957,2.9967,2.9969,2.998,2.9988,2.9979,2.9823,0,0,0,0,0,2.9413,2.9473,2.9523,2.9602,2.9625,2.9657,2.9692,2.9701,2.9749,2.9768,2.9803,2.985,2.9908,2.9946,3.0002,3.0097,3.0108,3.0137,3.0145,3.0152,3.016,3.0209,3.0221,3.0088,3.0088,3.0087,0,0,2.9447,2.9487,2.9524,2.9607,2.9643,2.9703,2.9673,2.9739,2.9782,2.9778,2.9859,2.9886,2.9939,3.0028,3.0069,3.0053,3.02,3.016,3.0165,3.017,3.0217,3.0229,3.024,3.0092,3.0091,3.009,0,0,2.9537,2.9575,2.9643,2.968,2.9735,2.9755,2.9772,2.9826,2.9844,2.9925,2.9922,2.9974,3.0075,3.0112,3.0143,3.0245,3.0239,3.0263,3.0307,3.0354,3.0364,3.0374,3.0407,3.0419,3.0271,3.0271,3.0271,0,2.9571,2.9661,2.9679,2.9743,2.9779,2.9777,2.9845,2.988,2.9951,2.9974,2.9956,3.008,3.0116,3.0211,3.0236,3.0263,3.028,3.0255,3.0362,3.0371,3.038,3.0412,3.0424,3.0273,3.0273,3.0273,3.0273,0,2.9699,2.9761,2.981,2.9876,2.9918,2.9984,3.001,3.0049,3.0054,3.0076,3.0158,3.02,3.0263,3.0287,3.0294,3.0383,3.0371,3.0357,3.0324,3.0395,3.0424,3.0437,3.0277,3.0276,3.0275,3.0275,0,0,2.9806,2.988,2.9897,2.9926,2.9986,3.0034,3.0099,3.016,3.0192,3.0241,3.0294,3.0378,3.0364,3.04,3.041,3.0452,3.0525,3.0433,3.0434,3.0446,3.0623,3.0631,3.0645,3.0523,3.0525,3.0527,3.0617,0,2.99,3.0015,3.0031,3.0132,3.0188,3.0187,3.0243,3.0284,3.0307,3.0357,3.0381,3.0439,3.0418,3.0439,3.0481,3.0508,3.0561,3.0502,3.057,3.0573,3.0555,3.0661,3.0671,3.0754,3.0629,3.0631,3.0633,0,3.0025,3.0075,3.0181,3.023,3.0254,3.0305,3.036,3.0409,3.0455,3.0468,3.0507,3.0512,3.0577,3.0542,3.0631,3.059,3.062,3.0637,3.064,3.0646,3.0605,3.0666,3.0781,3.0792,3.0652,3.0651,3.0649,0,3.0088,3.0182,3.0257,3.0283,3.0343,3.0377,3.0404,3.0448,3.0483,3.0532,3.0554,3.061,3.064,3.0683,3.0701,3.0675,3.0788,3.0756,3.0799,3.0798,3.0821,3.0819,3.0939,3.0844,3.0844,3.0844,3.0844,0,3.0189,3.0254,3.0286,3.0332,3.0403,3.0421,3.049,3.0516,3.0555,3.0604,3.0607,3.0653,3.0676,3.0726,3.0741,3.081,3.0825,3.0836,3.0838,3.0834,3.0832,3.0852,3.0845,3.0847,3.0846,3.0846,3.0845,0,3.0271,3.0296,3.0377,3.0426,3.044,3.049,3.0532,3.0575,3.0597,3.0659,3.0675,3.0708,3.0766,3.0789,3.0861,3.087,3.0949,3.0949,3.0933,3.0933,3.0974,3.0969,3.1109,3.1127,3.1023,3.1024,3.1025,0,3.0333,3.0382,3.0436,3.0469,3.0497,3.0551,3.0585,3.0604,3.064,3.0696,3.0732,3.079,3.0837,3.0929,3.0959,3.1013,3.1012,3.1057,3.102,3.1013,3.1009,3.1005,3.1008,3.1063,3.1064,3.1065,3.1066,0,3.0439,3.0448,3.0499,3.0553,3.0594,3.0638,3.068,3.0707,3.0732,3.0772,3.0831,3.0867,3.0939,3.0995,3.105,3.1076,3.1075,3.1078,3.109,3.1084,3.1072,3.1076,3.0949,3.1074,3.1073,3.1072,3.1072,3.1072,3.0511,3.0553,3.0597,3.0652,3.0686,3.0725,3.0767,3.0793,3.0842,3.0901,3.091,3.0972,3.1015,3.1088,3.1117,3.1164,3.1153,3.1171,3.1175,3.1179,3.118,3.1066,3.1175,3.1175,3.1175,3.1175,3.1174,0,3.0614,3.0642,3.0693,3.0751,3.0794,3.0789,3.0835,3.087,3.0925,3.0965,3.101,3.1076,3.1131,3.1164,3.1218,3.125,3.125,3.1263,3.126,3.1265,3.1189,3.1172,3.1262,3.1262,3.1262,3.1262,3.1262,3.1261,3.0673,3.0743,3.0757,3.0843,3.087,3.0931,3.0957,3.0992,3.1023,3.1097,3.1141,3.1163,3.12,3.1256,3.1304,3.1313,3.1331,3.1345,3.1352,3.128,3.1271,3.1262,3.1245,3.1349,3.1349,3.1423,3.1424,3.1424]},{"header":{"parameterUnit":"m.s-1","parameterCategory":1,"la1":30.2991,"la2":30.254,"lo1":-89.0895,"lo2":-89.0444,"dy":0.0017,"dx":0.0017,"nx":28,"ny":28,"refTime":"2025-06-19T03:00:00:Z","depth":0,"parameterNumber":3,"parameterNumberName":"V-component_of_WINDS"},"data":[0,0,0,0,0,0,0,0,0,0,0,0,0,0,0,0,0,0,0,0,0,0,0,0,0,0,0,0,0,0,0,0,0,0,0,0,0,0,0,0,0,0,0,0,0,0,0,0,0,0,0,0,0,0,0,0,0,0,2.0664,2.0665,0,2.0741,2.0742,2.0742,2.0716,2.0714,2.0713,2.0711,2.0789,2.0793,2.0796,0,0,0,0,0,0,0,0,0,0,0,0,0,2.0494,2.0497,2.0664,2.0665,2.0666,2.0741,2.0742,2.0743,2.0716,2.0714,2.0712,2.071,2.0788,2.0792,2.0797,0,0,0,0,0,0,0,0,0,0,0,0,0,2.0569,2.0498,2.0664,2.0662,2.0662,2.074,2.0742,2.0743,2.0717,2.0714,2.0712,2.0709,2.0787,2.0792,2.0797,2.0882,0,0,2.0814,2.0817,0,0,0,0,0,0,0,0,2.0565,2.0575,2.0661,2.0662,2.0663,2.0716,2.071,2.079,2.0717,2.0696,2.0711,2.0708,2.0767,2.0774,2.0794,2.0886,2.0889,2.0815,2.0818,2.082,2.0822,0,0,0,0,0,0,0,2.0559,2.0572,2.0694,2.0663,2.0664,2.0657,2.0664,2.0725,2.0745,2.0698,2.0696,2.0705,2.0767,2.0789,2.0795,2.089,2.0814,2.0819,2.0823,2.0825,2.1053,2.1056,0,0,0,0,0,0,2.0554,2.0568,2.0692,2.0697,2.0607,2.0662,2.0671,2.0702,2.0744,2.0748,2.0708,2.0704,2.0781,2.0789,2.0798,2.0899,2.082,2.0825,2.0829,2.105,2.1054,2.1057,0,0,0,0,0,0,2.055,2.0565,2.0689,2.0632,2.0647,2.0667,2.0703,2.0705,2.0726,2.0751,2.0755,2.0726,2.0779,2.079,2.0861,2.0901,2.0828,2.0833,2.1047,2.1051,2.1055,2.1102,0,0,0,0,0,0,2.0546,2.0564,2.0597,2.0633,2.065,2.0751,2.0705,2.0708,2.0736,2.0732,2.077,2.0774,2.0778,2.0853,2.0866,2.0908,2.0837,2.1044,2.1049,2.1054,2.1097,2.1107,2.1116,0,0,0,0,0,2.054,2.0608,2.0599,2.0614,2.0692,2.0754,2.0763,2.0767,2.0739,2.0772,2.0788,2.0772,2.0895,2.086,2.0875,2.0919,2.1041,2.1047,2.1053,2.1093,2.1105,2.1116,0,0,0,0,0,0,2.0577,2.0612,2.0603,2.0685,2.0716,2.0749,2.0791,2.078,2.082,2.0815,2.0817,2.0826,2.0898,2.0915,2.0877,2.1002,2.0964,2.0973,2.0988,2.1001,2.101,2.1005,2.0842,0,0,0,0,0,2.0594,2.0642,2.067,2.0739,2.0756,2.077,2.0797,2.0797,2.083,2.0843,2.0864,2.0897,2.0942,2.0972,2.1015,2.1099,2.1106,2.1136,2.1146,2.1153,2.1162,2.1206,2.1219,2.1077,2.1077,2.1077,0,0,2.0631,2.0657,2.0687,2.0747,2.0772,2.0821,2.0782,2.0835,2.0871,2.0851,2.0919,2.0935,2.0971,2.1049,2.1084,2.1065,2.1202,2.1161,2.1167,2.1172,2.1214,2.1227,2.1239,2.1081,2.1081,2.108,0,0,2.0724,2.0748,2.0808,2.0833,2.087,2.0879,2.0893,2.0927,2.0937,2.1005,2.0991,2.1033,2.1111,2.1137,2.1161,2.1261,2.1248,2.1275,2.1325,2.1368,2.1379,2.1389,2.1424,2.1437,2.1283,2.1283,2.1283,0,2.0765,2.0839,2.084,2.0894,2.0921,2.0904,2.0964,2.0988,2.1038,2.1056,2.1035,2.1132,2.1155,2.1237,2.1261,2.1281,2.1297,2.1271,2.1378,2.1388,2.1397,2.143,2.1444,2.1286,2.1285,2.1285,2.1285,0,2.0887,2.0938,2.0982,2.1029,2.1061,2.1118,2.1127,2.1159,2.1155,2.1166,2.1234,2.1261,2.1309,2.1328,2.1325,2.141,2.1397,2.1377,2.1338,2.1413,2.1445,2.1458,2.129,2.1289,2.1288,2.1287,0,0,2.1007,2.1053,2.1069,2.109,2.1129,2.1168,2.1223,2.127,2.1297,2.1331,2.1377,2.1443,2.1423,2.145,2.1449,2.1487,2.1564,2.1462,2.1463,2.148,2.1657,2.1673,2.1688,2.1555,2.1557,2.1559,2.1654,0,2.1103,2.12,2.1202,2.1292,2.1338,2.1322,2.137,2.1398,2.1409,2.145,2.1462,2.1508,2.148,2.1496,2.1532,2.1547,2.1599,2.154,2.1598,2.16,2.159,2.1704,2.1721,2.181,2.1667,2.1669,2.167,0,2.1228,2.1265,2.1359,2.139,2.1409,2.1453,2.1494,2.1533,2.1565,2.157,2.1599,2.1592,2.1648,2.1607,2.1683,2.1642,2.1666,2.1676,2.168,2.1686,2.164,2.1714,2.1838,2.1852,2.169,2.1688,2.1687,0,2.1305,2.1379,2.1445,2.1463,2.15,2.1531,2.1548,2.1577,2.1604,2.164,2.1658,2.17,2.1724,2.1756,2.1761,2.1731,2.1837,2.1797,2.1843,2.1843,2.1867,2.1865,2.1997,2.1881,2.1881,2.1881,2.1881,0,2.1412,2.147,2.148,2.152,2.1584,2.1585,2.1648,2.1663,2.1688,2.173,2.1718,2.1758,2.1762,2.1803,2.1806,2.1868,2.1879,2.1884,2.1885,2.1886,2.1885,2.1902,2.1896,2.1884,2.1884,2.1883,2.1882,0,2.151,2.1519,2.1589,2.1618,2.1627,2.1673,2.1697,2.1736,2.1745,2.1798,2.1811,2.1825,2.1872,2.188,2.1935,2.1938,2.2012,2.2006,2.2002,2.2001,2.2047,2.2042,2.2194,2.2214,2.2085,2.2086,2.2087,0,2.1578,2.1622,2.1656,2.1683,2.1701,2.1746,2.1773,2.1775,2.1804,2.1842,2.1875,2.1921,2.1958,2.2034,2.2049,2.2091,2.2086,2.2136,2.2092,2.2091,2.2086,2.2084,2.2088,2.2145,2.2146,2.2147,2.2148,0,2.1698,2.1699,2.1739,2.1781,2.1813,2.1846,2.1877,2.19,2.1905,2.1938,2.1986,2.2015,2.207,2.2116,2.2157,2.2174,2.2162,2.2162,2.2175,2.2176,2.2172,2.2175,2.2025,2.2158,2.2157,2.2157,2.2156,2.2156,2.1783,2.1821,2.185,2.1894,2.1917,2.1946,2.1983,2.1996,2.2036,2.2082,2.208,2.2132,2.2161,2.2215,2.2234,2.2275,2.2258,2.2277,2.2282,2.2287,2.2291,2.2165,2.2282,2.2282,2.2282,2.2281,2.2281,0,2.1901,2.1919,2.196,2.2002,2.2037,2.2022,2.2055,2.2085,2.2131,2.2159,2.2195,2.2249,2.2292,2.231,2.2353,2.2382,2.2377,2.2393,2.2391,2.2395,2.2303,2.2288,2.2396,2.2396,2.2396,2.2396,2.2395,2.2395,2.1967,2.203,2.2035,2.2109,2.2126,2.2177,2.2197,2.2223,2.2245,2.2306,2.2342,2.2353,2.2376,2.242,2.2459,2.2463,2.2479,2.2497,2.2499,2.2413,2.2401,2.239,2.2376,2.25,2.25,2.2587,2.2587,2.2588]}]]